カタログに戻る

STARLINK-35127

運用中通信VLEO
NORAD 65639·PAYLOAD·🇺🇸 United States

打ち上げ Sep 18, 2025 から Cape Canaveral Space Force Station

Loading…

次のパス (今後24時間)

TLE

最新Source: CelesTrak SupGP

元期: Sep 14, 2026, 20:53 UTC

1 65639C 25210T   26257.87062500 -.00044215  00000+0 -13062-2 0  2577
2 65639  53.1566 143.9500 0001276  85.1347  60.0248 15.34415815    11

AllMySatでSTARLINK-35127をリアルタイム追跡

Download on the App Store